Year,Month,Day,Hour,Minute,Value (Times are PST for temperature in C)
2021,06,28,00,00,22.80
2021,06,28,00,01,22.80
2021,06,28,00,02,22.80
2021,06,28,00,03,22.80
2021,06,28,00,04,22.80
2021,06,28,00,05,22.80
2021,06,28,00,06,22.80
2021,06,28,00,07,22.80
2021,06,28,00,08,22.70
2021,06,28,00,09,22.70
2021,06,28,00,10,22.70
2021,06,28,00,11,22.70
2021,06,28,00,12,22.70
2021,06,28,00,13,22.70
2021,06,28,00,14,22.70
2021,06,28,00,15,22.70
2021,06,28,00,16,22.70
2021,06,28,00,17,22.70
2021,06,28,00,18,22.80
2021,06,28,00,19,22.80
2021,06,28,00,20,22.80
2021,06,28,00,21,22.80
2021,06,28,00,22,22.80
2021,06,28,00,23,22.80
2021,06,28,00,24,22.80
2021,06,28,00,25,22.70
2021,06,28,00,26,22.70
2021,06,28,00,27,22.80
2021,06,28,00,28,22.80
2021,06,28,00,29,22.80
2021,06,28,00,30,22.80
2021,06,28,00,31,22.80
2021,06,28,00,32,22.80
2021,06,28,00,33,22.80
2021,06,28,00,34,22.80
2021,06,28,00,35,22.80
2021,06,28,00,36,22.80
2021,06,28,00,37,22.80
2021,06,28,00,38,22.80
2021,06,28,00,39,22.80
2021,06,28,00,40,22.80
2021,06,28,00,41,22.70
2021,06,28,00,42,22.70
2021,06,28,00,43,22.70
2021,06,28,00,44,22.60
2021,06,28,00,45,22.60
2021,06,28,00,46,22.60
2021,06,28,00,47,22.50
2021,06,28,00,48,22.50
2021,06,28,00,49,22.40
2021,06,28,00,50,22.40
2021,06,28,00,51,22.30
2021,06,28,00,52,22.30
2021,06,28,00,53,22.30
2021,06,28,00,54,22.30
2021,06,28,00,55,22.30
2021,06,28,00,56,22.20
2021,06,28,00,57,22.20
2021,06,28,00,58,22.20
2021,06,28,00,59,22.20
2021,06,28,01,00,22.20
2021,06,28,01,01,22.20
2021,06,28,01,02,22.20
2021,06,28,01,03,22.20
2021,06,28,01,04,22.20
2021,06,28,01,05,22.20
2021,06,28,01,06,22.30
2021,06,28,01,07,22.30
2021,06,28,01,08,22.30
2021,06,28,01,09,22.40
2021,06,28,01,10,22.40
2021,06,28,01,11,22.40
2021,06,28,01,12,22.40
2021,06,28,01,13,22.40
2021,06,28,01,14,22.50
2021,06,28,01,15,22.50
2021,06,28,01,16,22.50
2021,06,28,01,17,22.50
2021,06,28,01,18,22.50
2021,06,28,01,19,22.50
2021,06,28,01,20,22.40
2021,06,28,01,21,22.40
2021,06,28,01,22,22.40
2021,06,28,01,23,22.30
2021,06,28,01,24,22.30
2021,06,28,01,25,22.30
2021,06,28,01,26,22.30
2021,06,28,01,27,22.30
2021,06,28,01,28,22.30
2021,06,28,01,29,22.30
2021,06,28,01,30,22.30
2021,06,28,01,31,22.30
2021,06,28,01,32,22.30
2021,06,28,01,33,22.30
2021,06,28,01,34,22.30
2021,06,28,01,35,22.20
2021,06,28,01,36,22.20
2021,06,28,01,37,22.20
2021,06,28,01,38,22.10
2021,06,28,01,39,22.10
2021,06,28,01,40,22.10
2021,06,28,01,41,22.00
2021,06,28,01,42,21.90
2021,06,28,01,43,21.90
2021,06,28,01,44,21.80
2021,06,28,01,45,21.80
2021,06,28,01,46,21.80
2021,06,28,01,47,21.80
2021,06,28,01,48,21.80
2021,06,28,01,49,21.80
2021,06,28,01,50,21.80
2021,06,28,01,51,21.70
2021,06,28,01,52,21.70
2021,06,28,01,53,21.70
2021,06,28,01,54,21.70
2021,06,28,01,55,21.70
2021,06,28,01,56,21.70
2021,06,28,01,57,21.70
2021,06,28,01,58,21.70
2021,06,28,01,59,21.70
2021,06,28,02,00,21.70
2021,06,28,02,01,21.70
2021,06,28,02,02,21.70
2021,06,28,02,03,21.70
2021,06,28,02,04,21.60
2021,06,28,02,05,21.60
2021,06,28,02,06,21.50
2021,06,28,02,07,21.50
2021,06,28,02,08,21.50
2021,06,28,02,09,21.40
2021,06,28,02,10,21.40
2021,06,28,02,11,21.50
2021,06,28,02,12,21.40
2021,06,28,02,13,21.40
2021,06,28,02,14,21.40
2021,06,28,02,15,21.40
2021,06,28,02,16,21.50
2021,06,28,02,17,21.40
2021,06,28,02,18,21.40
2021,06,28,02,19,21.40
2021,06,28,02,20,21.40
2021,06,28,02,21,21.50
2021,06,28,02,22,21.50
2021,06,28,02,23,21.50
2021,06,28,02,24,21.50
2021,06,28,02,25,21.60
2021,06,28,02,26,21.60
2021,06,28,02,27,21.60
2021,06,28,02,28,21.60
2021,06,28,02,29,21.60
2021,06,28,02,30,21.60
2021,06,28,02,31,21.60
2021,06,28,02,32,21.60
2021,06,28,02,33,21.60
2021,06,28,02,34,21.60
2021,06,28,02,35,21.60
2021,06,28,02,36,21.50
2021,06,28,02,37,21.50
2021,06,28,02,38,21.40
2021,06,28,02,39,21.40
2021,06,28,02,40,21.40
2021,06,28,02,41,21.30
2021,06,28,02,42,21.30
2021,06,28,02,43,21.30
2021,06,28,02,44,21.20
2021,06,28,02,45,21.20
2021,06,28,02,46,21.20
2021,06,28,02,47,21.20
2021,06,28,02,48,21.20
2021,06,28,02,49,21.20
2021,06,28,02,50,21.20
2021,06,28,02,51,21.30
2021,06,28,02,52,21.30
2021,06,28,02,53,21.30
2021,06,28,02,54,21.30
2021,06,28,02,55,21.20
2021,06,28,02,56,21.20
2021,06,28,02,57,21.20
2021,06,28,02,58,21.10
2021,06,28,02,59,21.10
2021,06,28,03,00,21.10
2021,06,28,03,01,21.10
2021,06,28,03,02,21.10
2021,06,28,03,03,21.10
2021,06,28,03,04,21.10
2021,06,28,03,05,21.10
2021,06,28,03,06,21.20
2021,06,28,03,07,21.20
2021,06,28,03,08,21.20
2021,06,28,03,09,21.20
2021,06,28,03,10,21.10
2021,06,28,03,11,21.10
2021,06,28,03,12,21.10
2021,06,28,03,13,21.10
2021,06,28,03,14,21.20
2021,06,28,03,15,21.40
2021,06,28,03,16,21.50
2021,06,28,03,17,21.50
2021,06,28,03,18,21.60
2021,06,28,03,19,21.60
2021,06,28,03,20,21.50
2021,06,28,03,21,21.50
2021,06,28,03,22,21.40
2021,06,28,03,23,21.40
2021,06,28,03,24,21.30
2021,06,28,03,25,21.30
2021,06,28,03,26,21.20
2021,06,28,03,27,21.20
2021,06,28,03,28,21.20
2021,06,28,03,29,21.20
2021,06,28,03,30,21.10
2021,06,28,03,31,21.10
2021,06,28,03,32,21.00
2021,06,28,03,33,21.00
2021,06,28,03,34,20.90
2021,06,28,03,35,20.90
2021,06,28,03,36,20.90
2021,06,28,03,37,20.90
2021,06,28,03,38,20.90
2021,06,28,03,39,20.90
2021,06,28,03,40,21.00
2021,06,28,03,41,21.10
2021,06,28,03,42,21.20
2021,06,28,03,43,21.30
2021,06,28,03,44,21.30
2021,06,28,03,45,21.30
2021,06,28,03,46,21.30
2021,06,28,03,47,21.30
2021,06,28,03,48,21.30
2021,06,28,03,49,21.30
2021,06,28,03,50,21.20
2021,06,28,03,51,21.20
2021,06,28,03,52,21.10
2021,06,28,03,53,21.00
2021,06,28,03,54,21.00
2021,06,28,03,55,20.90
2021,06,28,03,56,20.90
2021,06,28,03,57,20.90
2021,06,28,03,58,20.90
2021,06,28,03,59,20.80
2021,06,28,04,00,20.80
2021,06,28,04,01,20.80
2021,06,28,04,02,20.70
2021,06,28,04,03,20.70
2021,06,28,04,04,20.70
2021,06,28,04,05,20.70
2021,06,28,04,06,20.80
2021,06,28,04,07,20.80
2021,06,28,04,08,20.70
2021,06,28,04,09,20.70
2021,06,28,04,10,20.70
2021,06,28,04,11,20.60
2021,06,28,04,12,20.60
2021,06,28,04,13,20.60
2021,06,28,04,14,20.60
2021,06,28,04,15,20.60
2021,06,28,04,16,20.70
2021,06,28,04,17,20.70
2021,06,28,04,18,20.70
2021,06,28,04,19,20.70
2021,06,28,04,20,20.70
2021,06,28,04,21,20.70
2021,06,28,04,22,20.70
2021,06,28,04,23,20.60
2021,06,28,04,24,20.60
2021,06,28,04,25,20.60
2021,06,28,04,26,20.50
2021,06,28,04,27,20.50
2021,06,28,04,28,20.40
2021,06,28,04,29,20.40
2021,06,28,04,30,20.30
2021,06,28,04,31,20.30
2021,06,28,04,32,20.30
2021,06,28,04,33,20.20
2021,06,28,04,34,20.20
2021,06,28,04,35,20.20
2021,06,28,04,36,20.10
2021,06,28,04,37,20.10
2021,06,28,04,38,20.10
2021,06,28,04,39,20.00
2021,06,28,04,40,20.00
2021,06,28,04,41,20.00
2021,06,28,04,42,19.90
2021,06,28,04,43,19.90
2021,06,28,04,44,19.90
2021,06,28,04,45,19.90
2021,06,28,04,46,19.90
2021,06,28,04,47,19.90
2021,06,28,04,48,19.90
2021,06,28,04,49,19.90
2021,06,28,04,50,19.90
2021,06,28,04,51,19.90
2021,06,28,04,52,19.90
2021,06,28,04,53,19.90
2021,06,28,04,54,19.90
2021,06,28,04,55,19.90
2021,06,28,04,56,19.90
2021,06,28,04,57,19.80
2021,06,28,04,58,19.80
2021,06,28,04,59,19.80
2021,06,28,05,00,19.80
2021,06,28,05,01,19.80
2021,06,28,05,02,19.80
2021,06,28,05,03,19.70
2021,06,28,05,04,19.70
2021,06,28,05,05,19.70
2021,06,28,05,06,19.70
2021,06,28,05,07,19.70
2021,06,28,05,08,19.70
2021,06,28,05,09,19.70
2021,06,28,05,10,19.70
2021,06,28,05,11,19.70
2021,06,28,05,12,19.60
2021,06,28,05,13,19.60
2021,06,28,05,14,19.60
2021,06,28,05,15,19.60
2021,06,28,05,16,19.60
2021,06,28,05,17,19.50
2021,06,28,05,18,19.50
2021,06,28,05,19,19.40
2021,06,28,05,20,19.40
2021,06,28,05,21,19.40
2021,06,28,05,22,19.30
2021,06,28,05,23,19.30
2021,06,28,05,24,19.30
2021,06,28,05,25,19.30
2021,06,28,05,26,19.30
2021,06,28,05,27,19.30
2021,06,28,05,28,19.30
2021,06,28,05,29,19.20
2021,06,28,05,30,19.20
2021,06,28,05,31,19.20
2021,06,28,05,32,19.20
2021,06,28,05,33,19.20
2021,06,28,05,34,19.20
2021,06,28,05,35,19.20
2021,06,28,05,36,19.20
2021,06,28,05,37,19.20
2021,06,28,05,38,19.20
2021,06,28,05,39,19.20
2021,06,28,05,40,19.20
2021,06,28,05,41,19.20
2021,06,28,05,42,19.20
2021,06,28,05,43,19.20
2021,06,28,05,44,19.20
2021,06,28,05,45,19.20
2021,06,28,05,46,19.20
2021,06,28,05,47,19.20
2021,06,28,05,48,19.30
2021,06,28,05,49,19.30
2021,06,28,05,50,19.30
2021,06,28,05,51,19.30
2021,06,28,05,52,19.30
2021,06,28,05,53,19.30
2021,06,28,05,54,19.30
2021,06,28,05,55,19.30
2021,06,28,05,56,19.30
2021,06,28,05,57,19.30
2021,06,28,05,58,19.30
2021,06,28,05,59,19.30
2021,06,28,06,00,19.30
2021,06,28,06,01,19.30
2021,06,28,06,02,19.30
2021,06,28,06,03,19.30
2021,06,28,06,04,19.30
2021,06,28,06,05,19.30
2021,06,28,06,06,19.20
2021,06,28,06,07,19.20
2021,06,28,06,08,19.20
2021,06,28,06,09,19.20
2021,06,28,06,10,19.20
2021,06,28,06,11,19.20
2021,06,28,06,12,19.30
2021,06,28,06,13,19.30
2021,06,28,06,14,19.30
2021,06,28,06,15,19.30
2021,06,28,06,16,19.30
2021,06,28,06,17,19.30
2021,06,28,06,18,19.30
2021,06,28,06,19,19.30
2021,06,28,06,20,19.30
2021,06,28,06,21,19.30
2021,06,28,06,22,19.30
2021,06,28,06,23,19.30
2021,06,28,06,24,19.30
2021,06,28,06,25,19.30
2021,06,28,06,26,19.30
2021,06,28,06,27,19.30
2021,06,28,06,28,19.30
2021,06,28,06,29,19.30
2021,06,28,06,30,19.30
2021,06,28,06,31,19.30
2021,06,28,06,32,19.30
2021,06,28,06,33,19.30
2021,06,28,06,34,19.30
2021,06,28,06,35,19.30
2021,06,28,06,36,19.30
2021,06,28,06,37,19.40
2021,06,28,06,38,19.40
2021,06,28,06,39,19.40
2021,06,28,06,40,19.40
2021,06,28,06,41,19.40
2021,06,28,06,42,19.50
2021,06,28,06,43,19.60
2021,06,28,06,44,19.60
2021,06,28,06,45,19.70
2021,06,28,06,46,19.80
2021,06,28,06,47,19.90
2021,06,28,06,48,19.90
2021,06,28,06,49,20.00
2021,06,28,06,50,20.10
2021,06,28,06,51,20.20
2021,06,28,06,52,20.30
2021,06,28,06,53,20.40
2021,06,28,06,54,20.50
2021,06,28,06,55,20.70
2021,06,28,06,56,20.80
2021,06,28,06,57,20.90
2021,06,28,06,58,21.00
2021,06,28,06,59,21.10
2021,06,28,07,00,21.10
2021,06,28,07,01,21.20
2021,06,28,07,02,21.20
2021,06,28,07,03,21.30
2021,06,28,07,04,21.30
2021,06,28,07,05,21.30
2021,06,28,07,06,21.40
2021,06,28,07,07,21.40
2021,06,28,07,08,21.40
2021,06,28,07,09,21.50
2021,06,28,07,10,21.50
2021,06,28,07,11,21.60
2021,06,28,07,12,21.60
2021,06,28,07,13,21.70
2021,06,28,07,14,21.80
2021,06,28,07,15,22.00
2021,06,28,07,16,22.10
2021,06,28,07,17,22.20
2021,06,28,07,18,22.30
2021,06,28,07,19,22.40
2021,06,28,07,20,22.50
2021,06,28,07,21,22.60
2021,06,28,07,22,22.70
2021,06,28,07,23,22.80
2021,06,28,07,24,22.90
2021,06,28,07,25,22.90
2021,06,28,07,26,23.00
2021,06,28,07,27,23.00
2021,06,28,07,28,23.10
2021,06,28,07,29,23.20
2021,06,28,07,30,23.30
2021,06,28,07,31,23.30
2021,06,28,07,32,23.40
2021,06,28,07,33,23.40
2021,06,28,07,34,23.50
2021,06,28,07,35,23.60
2021,06,28,07,36,23.60
2021,06,28,07,37,23.70
2021,06,28,07,38,23.80
2021,06,28,07,39,24.00
2021,06,28,07,40,24.10
2021,06,28,07,41,24.20
2021,06,28,07,42,24.30
2021,06,28,07,43,24.40
2021,06,28,07,44,24.50
2021,06,28,07,45,24.60
2021,06,28,07,46,24.60
2021,06,28,07,47,24.70
2021,06,28,07,48,24.70
2021,06,28,07,49,24.80
2021,06,28,07,50,24.80
2021,06,28,07,51,24.80
2021,06,28,07,52,24.90
2021,06,28,07,53,25.00
2021,06,28,07,54,25.10
2021,06,28,07,55,25.10
2021,06,28,07,56,25.20
2021,06,28,07,57,25.20
2021,06,28,07,58,25.30
2021,06,28,07,59,25.30
2021,06,28,08,00,25.40
2021,06,28,08,01,25.40
2021,06,28,08,02,25.50
2021,06,28,08,03,25.60
2021,06,28,08,04,25.60
2021,06,28,08,05,25.70
2021,06,28,08,06,25.80
2021,06,28,08,07,26.00
2021,06,28,08,08,26.10
2021,06,28,08,09,26.20
2021,06,28,08,10,26.30
2021,06,28,08,11,26.40
2021,06,28,08,12,26.50
2021,06,28,08,13,26.60
2021,06,28,08,14,26.70
2021,06,28,08,15,26.80
2021,06,28,08,16,26.90
2021,06,28,08,17,27.00
2021,06,28,08,18,27.10
2021,06,28,08,19,27.20
2021,06,28,08,20,27.30
2021,06,28,08,21,27.30
2021,06,28,08,22,27.40
2021,06,28,08,23,27.40
2021,06,28,08,24,27.50
2021,06,28,08,25,27.60
2021,06,28,08,26,27.70
2021,06,28,08,27,27.80
2021,06,28,08,28,27.90
2021,06,28,08,29,28.00
2021,06,28,08,30,28.00
2021,06,28,08,31,28.10
2021,06,28,08,32,28.20
2021,06,28,08,33,28.20
2021,06,28,08,34,28.30
2021,06,28,08,35,28.30
2021,06,28,08,36,28.40
2021,06,28,08,37,28.40
2021,06,28,08,38,28.50
2021,06,28,08,39,28.60
2021,06,28,08,40,28.70
2021,06,28,08,41,28.70
2021,06,28,08,42,28.80
2021,06,28,08,43,28.90
2021,06,28,08,44,28.90
2021,06,28,08,45,29.00
2021,06,28,08,46,29.10
2021,06,28,08,47,29.20
2021,06,28,08,48,29.30
2021,06,28,08,49,29.30
2021,06,28,08,50,29.40
2021,06,28,08,51,29.40
2021,06,28,08,52,29.40
2021,06,28,08,53,29.40
2021,06,28,08,54,29.50
2021,06,28,08,55,29.60
2021,06,28,08,56,29.60
2021,06,28,08,57,29.70
2021,06,28,08,58,29.80
2021,06,28,08,59,29.90
2021,06,28,09,00,29.90
2021,06,28,09,01,30.00
2021,06,28,09,02,30.10
2021,06,28,09,03,30.10
2021,06,28,09,04,30.10
2021,06,28,09,05,30.10
2021,06,28,09,06,30.10
2021,06,28,09,07,30.10
2021,06,28,09,08,30.10
2021,06,28,09,09,30.20
2021,06,28,09,10,30.20
2021,06,28,09,11,30.10
2021,06,28,09,12,30.10
2021,06,28,09,13,30.00
2021,06,28,09,14,29.90
2021,06,28,09,15,29.80
2021,06,28,09,16,29.70
2021,06,28,09,17,29.60
2021,06,28,09,18,29.60
2021,06,28,09,19,29.50
2021,06,28,09,20,29.40
2021,06,28,09,21,29.30
2021,06,28,09,22,29.20
2021,06,28,09,23,29.10
2021,06,28,09,24,29.00
2021,06,28,09,25,29.00
2021,06,28,09,26,28.90
2021,06,28,09,27,28.90
2021,06,28,09,28,28.90
2021,06,28,09,29,28.90
2021,06,28,09,30,28.90
2021,06,28,09,31,28.90
2021,06,28,09,32,28.90
2021,06,28,09,33,28.90
2021,06,28,09,34,28.90
2021,06,28,09,35,29.00
2021,06,28,09,36,29.00
2021,06,28,09,37,29.00
2021,06,28,09,38,29.10
2021,06,28,09,39,29.10
2021,06,28,09,40,29.20
2021,06,28,09,41,29.30
2021,06,28,09,42,29.40
2021,06,28,09,43,29.50
2021,06,28,09,44,29.60
2021,06,28,09,45,29.60
2021,06,28,09,46,29.70
2021,06,28,09,47,29.80
2021,06,28,09,48,29.90
2021,06,28,09,49,29.90
2021,06,28,09,50,29.90
2021,06,28,09,51,29.90
2021,06,28,09,52,29.90
2021,06,28,09,53,29.90
2021,06,28,09,54,30.00
2021,06,28,09,55,30.00
2021,06,28,09,56,30.10
2021,06,28,09,57,30.10
2021,06,28,09,58,30.20
2021,06,28,09,59,30.30
2021,06,28,10,00,30.30
2021,06,28,10,01,30.30
2021,06,28,10,02,30.30
2021,06,28,10,03,30.20
2021,06,28,10,04,30.10
2021,06,28,10,05,30.00
2021,06,28,10,06,29.90
2021,06,28,10,07,29.90
2021,06,28,10,08,29.80
2021,06,28,10,09,29.80
2021,06,28,10,10,29.80
2021,06,28,10,11,29.90
2021,06,28,10,12,29.90
2021,06,28,10,13,30.00
2021,06,28,10,14,30.10
2021,06,28,10,15,30.10
2021,06,28,10,16,30.20
2021,06,28,10,17,30.20
2021,06,28,10,18,30.20
2021,06,28,10,19,30.20
2021,06,28,10,20,30.20
2021,06,28,10,21,30.20
2021,06,28,10,22,30.20
2021,06,28,10,23,30.20
2021,06,28,10,24,30.30
2021,06,28,10,25,30.30
2021,06,28,10,26,30.30
2021,06,28,10,27,30.40
2021,06,28,10,28,30.40
2021,06,28,10,29,30.50
2021,06,28,10,30,30.60
2021,06,28,10,31,30.60
2021,06,28,10,32,30.70
2021,06,28,10,33,30.70
2021,06,28,10,34,30.70
2021,06,28,10,35,30.70
2021,06,28,10,36,30.70
2021,06,28,10,37,30.80
2021,06,28,10,38,30.80
2021,06,28,10,39,30.80
2021,06,28,10,40,30.80
2021,06,28,10,41,30.80
2021,06,28,10,42,30.80
2021,06,28,10,43,30.90
2021,06,28,10,44,30.90
2021,06,28,10,45,30.90
2021,06,28,10,46,30.90
2021,06,28,10,47,30.90
2021,06,28,10,48,31.00
2021,06,28,10,49,31.00
2021,06,28,10,50,31.00
2021,06,28,10,51,31.00
2021,06,28,10,52,30.90
2021,06,28,10,53,30.90
2021,06,28,10,54,30.80
2021,06,28,10,55,30.80
2021,06,28,10,56,30.80
2021,06,28,10,57,30.80
2021,06,28,10,58,30.80
2021,06,28,10,59,30.80
2021,06,28,11,00,30.80
2021,06,28,11,01,30.90
2021,06,28,11,02,30.90
2021,06,28,11,03,31.00
2021,06,28,11,04,31.00
2021,06,28,11,05,31.00
2021,06,28,11,06,31.00
2021,06,28,11,07,31.00
2021,06,28,11,08,30.90
2021,06,28,11,09,30.90
2021,06,28,11,10,30.90
2021,06,28,11,11,30.90
2021,06,28,11,12,31.00
2021,06,28,11,13,31.00
2021,06,28,11,14,31.10
2021,06,28,11,15,31.10
2021,06,28,11,16,31.10
2021,06,28,11,17,31.10
2021,06,28,11,18,31.10
2021,06,28,11,19,31.20
2021,06,28,11,20,31.20
2021,06,28,11,21,31.30
2021,06,28,11,22,31.40
2021,06,28,11,23,31.50
2021,06,28,11,24,31.70
2021,06,28,11,25,31.70
2021,06,28,11,26,31.80
2021,06,28,11,27,31.90
2021,06,28,11,28,31.90
2021,06,28,11,29,31.90
2021,06,28,11,30,31.90
2021,06,28,11,31,31.90
2021,06,28,11,32,31.90
2021,06,28,11,33,31.90
2021,06,28,11,34,31.90
2021,06,28,11,35,31.90
2021,06,28,11,36,32.00
2021,06,28,11,37,32.10
2021,06,28,11,38,32.10
2021,06,28,11,39,32.20
2021,06,28,11,40,32.30
2021,06,28,11,41,32.40
2021,06,28,11,42,32.50
2021,06,28,11,43,32.60
2021,06,28,11,44,32.70
2021,06,28,11,45,32.80
2021,06,28,11,46,32.80
2021,06,28,11,47,32.90
2021,06,28,11,48,33.00
2021,06,28,11,49,33.10
2021,06,28,11,50,33.20
2021,06,28,11,51,33.20
2021,06,28,11,52,33.30
2021,06,28,11,53,33.30
2021,06,28,11,54,33.30
2021,06,28,11,55,33.40
2021,06,28,11,56,33.40
2021,06,28,11,57,33.50
2021,06,28,11,58,33.50
2021,06,28,11,59,33.50
2021,06,28,12,00,33.40
2021,06,28,12,01,33.50
2021,06,28,12,02,33.50
2021,06,28,12,03,33.50
2021,06,28,12,04,33.60
2021,06,28,12,05,33.60
2021,06,28,12,06,33.60
2021,06,28,12,07,33.60
2021,06,28,12,08,33.60
2021,06,28,12,09,33.60
2021,06,28,12,10,33.60
2021,06,28,12,11,33.70
2021,06,28,12,12,33.70
2021,06,28,12,13,33.70
2021,06,28,12,14,33.60
2021,06,28,12,15,33.60
2021,06,28,12,16,33.60
2021,06,28,12,17,33.60
2021,06,28,12,18,33.50
2021,06,28,12,19,33.50
2021,06,28,12,20,33.50
2021,06,28,12,21,33.50
2021,06,28,12,22,33.40
2021,06,28,12,23,33.40
2021,06,28,12,24,33.40
2021,06,28,12,25,33.40
2021,06,28,12,26,33.40
2021,06,28,12,27,33.30
2021,06,28,12,28,33.30
2021,06,28,12,29,33.30
2021,06,28,12,30,33.30
2021,06,28,12,31,33.30
2021,06,28,12,32,33.30
2021,06,28,12,33,33.30
2021,06,28,12,34,33.30
2021,06,28,12,35,33.30
2021,06,28,12,36,33.30
2021,06,28,12,37,33.40
2021,06,28,12,38,33.40
2021,06,28,12,39,33.50
2021,06,28,12,40,33.50
2021,06,28,12,41,33.50
2021,06,28,12,42,33.60
2021,06,28,12,43,33.60
2021,06,28,12,44,33.60
2021,06,28,12,45,33.60
2021,06,28,12,46,33.70
2021,06,28,12,47,33.70
2021,06,28,12,48,33.70
2021,06,28,12,49,33.80
2021,06,28,12,50,33.90
2021,06,28,12,51,34.00
2021,06,28,12,52,34.00
2021,06,28,12,53,34.10
2021,06,28,12,54,34.20
2021,06,28,12,55,34.30
2021,06,28,12,56,34.30
2021,06,28,12,57,34.30
2021,06,28,12,58,34.40
2021,06,28,12,59,34.40
2021,06,28,13,00,34.50
2021,06,28,13,01,34.50
2021,06,28,13,02,34.60
2021,06,28,13,03,34.70
2021,06,28,13,04,34.80
2021,06,28,13,05,34.80
2021,06,28,13,06,34.80
2021,06,28,13,07,34.80
2021,06,28,13,08,34.90
2021,06,28,13,09,35.00
2021,06,28,13,10,35.10
2021,06,28,13,11,35.10
2021,06,28,13,12,35.20
2021,06,28,13,13,35.20
2021,06,28,13,14,35.20
2021,06,28,13,15,35.20
2021,06,28,13,16,35.30
2021,06,28,13,17,35.40
2021,06,28,13,18,35.40
2021,06,28,13,19,35.40
2021,06,28,13,20,35.40
2021,06,28,13,21,35.40
2021,06,28,13,22,35.40
2021,06,28,13,23,35.40
2021,06,28,13,24,35.40
2021,06,28,13,25,35.40
2021,06,28,13,26,35.50
2021,06,28,13,27,35.60
2021,06,28,13,28,35.60
2021,06,28,13,29,35.50
2021,06,28,13,30,35.50
2021,06,28,13,31,35.50
2021,06,28,13,32,35.50
2021,06,28,13,33,35.40
2021,06,28,13,34,35.40
2021,06,28,13,35,35.40
2021,06,28,13,36,35.30
2021,06,28,13,37,35.30
2021,06,28,13,38,35.30
2021,06,28,13,39,35.20
2021,06,28,13,40,35.20
2021,06,28,13,41,35.30
2021,06,28,13,42,35.30
2021,06,28,13,43,35.30
2021,06,28,13,44,35.40
2021,06,28,13,45,35.50
2021,06,28,13,46,35.50
2021,06,28,13,47,35.60
2021,06,28,13,48,35.60
2021,06,28,13,49,35.50
2021,06,28,13,50,35.40
2021,06,28,13,51,35.20
2021,06,28,13,52,35.10
2021,06,28,13,53,35.10
2021,06,28,13,54,35.20
2021,06,28,13,55,35.20
2021,06,28,13,56,35.20
2021,06,28,13,57,35.20
2021,06,28,13,58,35.30
2021,06,28,13,59,35.20
2021,06,28,14,00,35.10
2021,06,28,14,01,35.00
2021,06,28,14,02,34.90
2021,06,28,14,03,34.70
2021,06,28,14,04,34.60
2021,06,28,14,05,34.50
2021,06,28,14,06,34.40
2021,06,28,14,07,34.30
2021,06,28,14,08,34.30
2021,06,28,14,09,34.20
2021,06,28,14,10,34.20
2021,06,28,14,11,34.20
2021,06,28,14,12,34.20
2021,06,28,14,13,34.30
2021,06,28,14,14,34.40
2021,06,28,14,15,34.50
2021,06,28,14,16,34.50
2021,06,28,14,17,34.60
2021,06,28,14,18,34.70
2021,06,28,14,19,34.80
2021,06,28,14,20,34.90
2021,06,28,14,21,34.90
2021,06,28,14,22,35.00
2021,06,28,14,23,35.10
2021,06,28,14,24,35.20
2021,06,28,14,25,35.30
2021,06,28,14,26,35.40
2021,06,28,14,27,35.50
2021,06,28,14,28,35.60
2021,06,28,14,29,35.70
2021,06,28,14,30,35.80
2021,06,28,14,31,35.90
2021,06,28,14,32,36.00
2021,06,28,14,33,36.10
2021,06,28,14,34,36.10
2021,06,28,14,35,36.20
2021,06,28,14,36,36.20
2021,06,28,14,37,36.20
2021,06,28,14,38,36.20
2021,06,28,14,39,36.20
2021,06,28,14,40,36.20
2021,06,28,14,41,36.20
2021,06,28,14,42,36.20
2021,06,28,14,43,36.20
2021,06,28,14,44,36.20
2021,06,28,14,45,36.20
2021,06,28,14,46,36.20
2021,06,28,14,47,36.20
2021,06,28,14,48,36.20
2021,06,28,14,49,36.10
2021,06,28,14,50,36.10
2021,06,28,14,51,35.90
2021,06,28,14,52,35.70
2021,06,28,14,53,35.40
2021,06,28,14,54,35.20
2021,06,28,14,55,35.00
2021,06,28,14,56,34.90
2021,06,28,14,57,34.80
2021,06,28,14,58,34.80
2021,06,28,14,59,34.70
2021,06,28,15,00,34.60
2021,06,28,15,01,34.50
2021,06,28,15,02,34.40
2021,06,28,15,03,34.30
2021,06,28,15,04,34.40
2021,06,28,15,05,34.40
2021,06,28,15,06,34.40
2021,06,28,15,07,34.50
2021,06,28,15,08,34.60
2021,06,28,15,09,34.70
2021,06,28,15,10,34.80
2021,06,28,15,11,34.80
2021,06,28,15,12,34.90
2021,06,28,15,13,35.00
2021,06,28,15,14,35.10
2021,06,28,15,15,35.20
2021,06,28,15,16,35.30
2021,06,28,15,17,35.30
2021,06,28,15,18,35.30
2021,06,28,15,19,35.30
2021,06,28,15,20,35.30
2021,06,28,15,21,35.40
2021,06,28,15,22,35.40
2021,06,28,15,23,35.40
2021,06,28,15,24,35.40
2021,06,28,15,25,35.40
2021,06,28,15,26,35.30
2021,06,28,15,27,35.20
2021,06,28,15,28,35.10
2021,06,28,15,29,34.80
2021,06,28,15,30,34.50
2021,06,28,15,31,34.10
2021,06,28,15,32,33.70
2021,06,28,15,33,33.40
2021,06,28,15,34,33.20
2021,06,28,15,35,33.00
2021,06,28,15,36,32.90
2021,06,28,15,37,32.90
2021,06,28,15,38,32.90
2021,06,28,15,39,32.90
2021,06,28,15,40,32.90
2021,06,28,15,41,33.00
2021,06,28,15,42,33.10
2021,06,28,15,43,33.30
2021,06,28,15,44,33.50
2021,06,28,15,45,33.70
2021,06,28,15,46,33.90
2021,06,28,15,47,34.00
2021,06,28,15,48,34.10
2021,06,28,15,49,34.30
2021,06,28,15,50,34.40
2021,06,28,15,51,34.50
2021,06,28,15,52,34.60
2021,06,28,15,53,34.50
2021,06,28,15,54,34.30
2021,06,28,15,55,34.10
2021,06,28,15,56,34.00
2021,06,28,15,57,33.90
2021,06,28,15,58,33.80
2021,06,28,15,59,33.80
2021,06,28,16,00,33.80
2021,06,28,16,01,33.80
2021,06,28,16,02,33.90
2021,06,28,16,03,33.90
2021,06,28,16,04,33.90
2021,06,28,16,05,33.90
2021,06,28,16,06,33.80
2021,06,28,16,07,33.80
2021,06,28,16,08,33.80
2021,06,28,16,09,33.70
2021,06,28,16,10,33.70
2021,06,28,16,11,33.60
2021,06,28,16,12,33.50
2021,06,28,16,13,33.30
2021,06,28,16,14,33.00
2021,06,28,16,15,32.60
2021,06,28,16,16,32.20
2021,06,28,16,17,31.90
2021,06,28,16,18,31.60
2021,06,28,16,19,31.40
2021,06,28,16,20,31.10
2021,06,28,16,21,31.00
2021,06,28,16,22,30.90
2021,06,28,16,23,30.80
2021,06,28,16,24,30.80
2021,06,28,16,25,30.90
2021,06,28,16,26,30.90
2021,06,28,16,27,30.80
2021,06,28,16,28,30.90
2021,06,28,16,29,31.00
2021,06,28,16,30,31.10
2021,06,28,16,31,31.30
2021,06,28,16,32,31.40
2021,06,28,16,33,31.50
2021,06,28,16,34,31.70
2021,06,28,16,35,31.80
2021,06,28,16,36,31.90
2021,06,28,16,37,32.00
2021,06,28,16,38,32.10
2021,06,28,16,39,32.20
2021,06,28,16,40,32.20
2021,06,28,16,41,32.30
2021,06,28,16,42,32.30
2021,06,28,16,43,32.30
2021,06,28,16,44,32.30
2021,06,28,16,45,32.30
2021,06,28,16,46,32.30
2021,06,28,16,47,32.10
2021,06,28,16,48,32.00
2021,06,28,16,49,31.90
2021,06,28,16,50,31.90
2021,06,28,16,51,32.00
2021,06,28,16,52,32.10
2021,06,28,16,53,32.20
2021,06,28,16,54,32.30
2021,06,28,16,55,32.40
2021,06,28,16,56,32.60
2021,06,28,16,57,32.70
2021,06,28,16,58,32.80
2021,06,28,16,59,32.90
2021,06,28,17,00,33.00
2021,06,28,17,01,33.10
2021,06,28,17,02,33.20
2021,06,28,17,03,33.30
2021,06,28,17,04,33.40
2021,06,28,17,05,33.50
2021,06,28,17,06,33.60
2021,06,28,17,07,33.80
2021,06,28,17,08,33.90
2021,06,28,17,09,33.90
2021,06,28,17,10,33.90
2021,06,28,17,11,33.80
2021,06,28,17,12,33.70
2021,06,28,17,13,33.60
2021,06,28,17,14,33.40
2021,06,28,17,15,33.30
2021,06,28,17,16,33.20
2021,06,28,17,17,33.10
2021,06,28,17,18,33.00
2021,06,28,17,19,32.90